Hourly Data Report for October 02, 2016

All times are specified in Local Standard Time (LST). Add 1 hour to adjust for Daylight Saving Time where and when it is observed.

GRISE FIORD CLIMATE
NUNAVUT

76°25'22.040" N
82°54'08.020" W
44.50 m
2402351
71971
NGC

Download Data

Hourly Data (October 2016)
Hourly Data Report for October 2, 2016
Temp Definition
°C
Dew Point Temp Definition
°C
Rel Hum Definition
%
Wind Dir Definition
10's deg

Wind Spd Definition
km/h
Visibility Definition
km
Stn Press Definition
kPa
Hmdx Definition


Wind Chill Definition


Weather Definition


TIME
00:00 -2.2 -6.9 70 25 3   100.52   -3 LegendNANA
01:00 -2.6 -5.5 81 27 14   100.48   -7 LegendNANA
02:00 -3.1 -5.8 81 1 7   100.43   -6 LegendNANA
03:00 -3.4 -5.7 84 6 7   100.38   -6 LegendNANA
04:00 -5.0 -7.6 81 2 6   100.33   -8 LegendNANA
05:00 -3.6 -6.8 78 3 4   100.29   -5 LegendNANA
06:00 -6.3 -9.4 79 5 4   100.25   -8 LegendNANA
07:00 -5.2 -8.0 81 5 4   100.17   -7 LegendNANA
08:00 -4.2 -8.4 72 5 12   100.14   -9 LegendNANA
09:00 -3.7 -6.5 81 3 13   100.07   -9 LegendNANA
10:00 -3.0 -6.1 79 4 8   100.00   -6 LegendNANA
11:00 -3.2 -5.7 83 14 9   99.94   -7 LegendNANA
12:00 -4.2 -4.9 95 15 6   99.90   -7 LegendNANA
13:00 -4.2 -5.4 91 13 7   99.85   -7 LegendNANA
14:00 -4.1 -4.8 95 16 8   99.81   -8 LegendNANA
15:00 -4.3 -5.0 95 13 7   99.78   -7 LegendNANA
16:00 -4.4 -5.1 95 1 5   99.74   -7 LegendNANA
17:00 -3.2 -5.6 83 6 11   99.68   -7 LegendNANA
18:00 -3.3 -7.0 75 9 28   99.64   -11 LegendNANA
19:00 -3.7 -7.4 76 7 48   99.58   -13 LegendNANA
20:00 -3.1 -8.0 69 9 37   99.58   -11 LegendNANA
21:00 -3.3 -8.0 70 8 35   99.59   -11 LegendNANA
22:00 -2.7 -9.0 62 8 39   99.56   -11 LegendNANA
23:00 -2.6 -9.6 59 7 38   99.54   -11 LegendNANA

Notes on Data Quality.

Legend

  • E = Estimated
  • M = Missing
  • NA = Not Available
  • ‡ = Partner data that is not subject to review by the National Climate Archives
Date modified: